F4DYW-13 Weather Reports


Display with metric or nautical units.
time (UTC)temp
F
wind
direction
speed
MPH
gust
MPH
rain 1hr
in
rain 24hr
in
rain mn
in
humidity
%
barometer
mb
20260506134114 65 0 0.0 0.0 0.00 0.00 0.00 60 1011.9
20260506132356 65 0 0.0 0.0 0.00 0.00 0.00 60 1011.9
20260506130641 65 0 0.0 0.0 0.00 0.00 0.00 59 1011.9
20260506123211 65 0 0.0 0.0 0.00 0.00 0.00 59 1012.0
20260506121454 65 0 0.0 0.0 0.00 0.00 0.00 60 1012.2
20260506115737 65 0 0.0 0.0 0.00 0.00 0.00 60 1012.2
20260506110551 64 0 0.0 0.0 0.00 0.00 0.00 62 1012.7
20260506104835 64 0 0.0 0.0 0.00 0.00 0.00 62 1013.0
20260506101404 64 0 0.0 0.0 0.00 0.00 0.00 62 1013.0
20260506095650 64 0 0.0 0.0 0.00 0.00 0.00 62 1013.0
20260506093934 64 0 0.0 0.0 0.00 0.00 0.00 62 1013.0
20260506092217 64 0 0.0 0.0 0.00 0.00 0.00 63 1013.0
20260506084746 64 0 0.0 0.0 0.00 0.00 0.00 65 1012.8
20260506083030 64 0 0.0 0.0 0.00 0.00 0.00 66 1012.6
20260506072127 63 0 0.0 0.0 0.00 0.00 0.00 70 1012.5
20260506050321 63 0 0.0 0.0 0.00 0.00 0.00 69 1011.3
20260506044605 63 0 0.0 0.0 0.00 0.00 0.00 70 1011.0
20260506042850 63 0 0.0 0.0 0.00 0.00 0.00 70 1010.9
20260506035418 63 0 0.0 0.0 0.00 0.00 0.00 70 1010.9
20260506022800 64 0 0.0 0.0 0.00 0.00 0.00 69 1011.2
20260506021044 64 0 0.0 0.0 0.00 0.00 0.00 69 1011.2
20260506015328 64 0 0.0 0.0 0.00 0.00 0.00 69 1011.4
20260506013613 63 0 0.0 0.0 0.00 0.00 0.00 69 1011.4
20260506011856 64 0 0.0 0.0 0.00 0.00 0.00 69 1011.3
20260506002710 64 0 0.0 0.0 0.00 0.00 0.00 69 1011.7
20260506000954 64 0 0.0 0.0 0.00 0.00 0.00 69 1011.9
20260505235240 64 0 0.0 0.0 0.00 0.00 0.00 69 1012.4
20260505233523 64 0 0.0 0.0 0.00 0.00 0.00 69 1012.6
20260505231809 64 0 0.0 0.0 0.00 0.00 0.00 68 1012.7
20260505224337 64 0 0.0 0.0 0.00 0.00 0.00 69 1012.7
20260505222623 64 0 0.0 0.0 0.00 0.00 0.00 69 1012.9
20260505204246 64 0 0.0 0.0 0.00 0.00 0.00 72 1013.7
20260505195059 64 0 0.0 0.0 0.00 0.00 0.00 72 1013.4
20260505191627 64 0 0.0 0.0 0.00 0.00 0.00 72 1012.8
20260505185915 64 0 0.0 0.0 0.00 0.00 0.00 71 1012.5
20260505184157 64 0 0.0 0.0 0.00 0.00 0.00 71 1012.3
20260505182441 64 0 0.0 0.0 0.00 0.00 0.00 72 1012.2
20260505173253 65 0 0.0 0.0 0.00 0.00 0.00 69 1011.8
20260505171538 65 0 0.0 0.0 0.00 0.00 0.00 70 1011.9
20260505165822 65 0 0.0 0.0 0.00 0.00 0.00 69 1012.0
20260505162354 65 0 0.0 0.0 0.00 0.00 0.00 69 1011.7
20260505160635 66 0 0.0 0.0 0.00 0.00 0.00 69 1011.6
20260505153206 66 0 0.0 0.0 0.00 0.00 0.00 69 1011.2
20260505151452 66 0 0.0 0.0 0.00 0.00 0.00 69 1011.5
20260505140546 66 0 0.0 0.0 0.00 0.00 0.00 70 1011.7